GFSFLT2_700_spd_153.txt.gz
Wind_Speed
43 42 45 40 41 43 41 41 40 38 37 37 35 34 34 34 35 35 36 34 33 33 32 34 34 34 34
47 45 44 43 42 44 44 44 43 40 41 39 37 35 35 35 35 36 36 35 35 34 31 33 34 35 34
50 48 46 46 45 44 44 45 45 44 44 42 38 38 38 37 37 38 37 36 35 34 33 33 33 35 35
52 52 51 47 47 47 45 44 46 47 47 44 40 39 38 37 37 37 37 37 36 34 34 34 33 34 35
55 54 55 52 48 46 48 45 47 48 48 45 43 40 38 37 37 38 39 38 36 35 36 36 34 34 35
58 58 57 56 51 48 47 50 51 47 47 47 43 42 38 37 37 38 38 39 38 37 37 36 36 35 35
61 62 60 56 52 52 50 52 51 47 47 47 42 41 38 37 38 38 38 38 39 39 38 37 36 35 35
57 60 60 57 53 53 49 50 52 47 44 48 43 41 40 40 37 36 37 39 40 40 38 36 35 34 35
56 56 57 58 55 51 54 53 53 48 43 47 43 41 40 40 37 37 38 38 39 40 37 36 34 34 34
53 53 53 54 54 52 53 53 55 47 44 46 42 41 42 38 37 38 38 37 38 38 36 35 33 34 34
50 49 49 48 48 48 51 48 52 42 44 45 42 39 40 40 38 37 37 36 35 36 35 34 33 32 33
46 46 46 44 40 43 48 45 47 43 40 44 37 39 39 39 38 36 36 34 33 35 34 32 33 32 32
45 45 42 41 39 40 42 37 41 39 40 36 36 37 38 38 36 36 35 33 32 32 32 31 31 32 32
38 40 43 39 38 36 37 30 26 34 33 31 33 34 37 36 35 34 32 32 28 28 30 30 31 33 31
36 35 40 37 39 32 27 31 28 31 30 26 28 30 32 34 34 32 29 29 28 28 30 29 30 31 30
34 32 37 31 31 29 23 24 25 26 24 24 25 28 31 33 31 28 29 28 27 28 29 28 27 29 30
31 30 35 27 25 23 22 23 24 26 25 25 25 26 30 30 26 28 29 28 27 26 26 26 25 26 30

GFSFLT2_700_spd_159.txt.gz
Wind_Speed
46 41 42 42 43 45 45 45 44 43 43 43 43 42 42 43 43 44 44 43 41 40 38 36 35 35 33
52 51 50 48 48 48 49 50 49 47 44 44 44 44 45 45 45 45 44 43 43 42 40 38 38 37 34
56 56 56 54 53 52 51 51 52 51 49 47 47 47 47 48 47 45 45 44 44 43 43 41 40 39 37
56 57 57 57 58 58 57 54 53 52 52 52 50 49 49 48 48 47 45 45 45 45 44 42 42 41 39
56 56 56 55 55 56 59 60 59 57 54 51 50 51 50 49 49 47 45 44 45 45 45 44 42 40 40
54 55 55 54 54 55 54 54 59 56 59 61 54 51 50 48 46 44 43 43 44 45 45 45 43 42 41
52 52 54 51 50 50 50 51 52 50 53 58 56 56 46 42 40 39 39 41 42 44 44 44 43 42 41
47 48 47 46 45 45 46 45 44 43 43 50 49 52 47 40 38 41 41 41 39 41 42 42 43 42 42
46 45 43 41 39 41 42 45 47 46 42 49 45 48 47 42 39 40 44 41 38 38 40 42 42 41 42
47 44 42 39 37 39 42 46 48 49 42 44 43 41 44 39 35 38 41 45 35 36 38 39 39 41 41
45 42 40 39 38 40 42 44 44 43 38 37 40 41 39 39 32 34 32 34 38 39 39 38 38 39 40
40 37 37 37 38 38 38 38 37 37 37 38 36 36 39 40 31 26 25 25 29 28 33 38 36 36 36
35 34 34 35 38 39 38 37 36 33 36 35 34 36 32 24 28 22 26 22 21 26 32 31 28 33 36
34 34 36 38 39 39 39 33 31 34 30 30 24 28 27 23 17 19 27 23 24 26 24 26 29 31 33
34 36 38 39 38 35 29 27 29 31 26 22 16 13 18 16 21 26 23 23 22 22 24 27 29 31 34
36 36 35 34 31 25 23 25 28 23 19 19 15 12 14 16 19 21 21 21 21 21 23 27 28 29 31
33 31 30 27 24 22 21 23 21 18 15 16 16 12 15 14 13 14 18 19 21 22 24 26 25 25 27

GFSFLT2_700_spd_162.txt.gz
Wind_Speed
52 45 45 45 45 47 49 51 51 51 50 50 49 49 48 48 47 47 47 47 46 45 44 43 42 42 41
56 56 55 52 51 51 50 51 52 53 53 54 54 54 54 53 52 51 50 50 49 48 47 46 44 42 41
57 57 57 57 55 53 52 52 52 52 52 53 54 55 56 55 54 53 52 51 51 49 48 47 46 44 42
56 56 57 56 56 56 57 54 53 51 50 49 48 48 50 54 56 57 56 53 51 50 50 49 47 45 44
56 57 57 57 57 57 59 58 57 53 54 53 51 48 46 45 48 51 54 55 54 51 50 50 48 46 46
57 58 58 56 55 54 54 55 58 52 49 49 46 48 46 41 40 44 47 52 53 53 50 50 49 48 46
55 55 56 54 53 53 51 50 50 48 46 47 41 43 41 38 35 35 42 48 52 52 47 49 50 48 46
51 51 50 49 49 49 49 49 48 44 41 46 40 44 43 41 35 34 36 43 49 49 48 44 47 46 45
49 47 44 42 41 43 44 45 45 42 38 46 43 45 41 41 41 38 37 37 47 47 49 46 44 42 44
46 43 40 37 34 35 38 40 40 41 36 42 40 37 39 37 39 37 33 31 38 46 42 42 43 41 40
42 39 37 33 31 31 34 36 38 39 37 38 38 36 38 40 39 35 30 30 31 35 27 36 39 42 39
36 34 33 31 31 31 32 35 37 39 36 37 37 35 38 40 37 36 28 29 22 23 25 30 34 33 33
34 33 32 31 31 33 34 36 38 39 36 31 30 34 33 35 40 37 24 23 17 21 22 24 29 35 35
33 33 33 34 35 35 37 36 36 29 23 25 29 27 27 31 28 24 25 21 14 24 18 20 29 31 29
36 36 36 35 33 31 30 27 24 23 25 24 22 19 22 23 18 19 16 9 16 20 17 19 22 24 26
36 34 32 29 29 28 25 22 21 22 24 20 17 16 20 18 14 13 11 11 14 19 18 19 21 23 26
30 26 25 25 27 27 22 18 19 19 19 17 16 17 18 17 14 12 12 12 16 18 18 20 21 24 26

GFSFLT2_700_spd_165.txt.gz
Wind_Speed
57 53 49 48 47 49 51 53 54 54 55 56 56 56 56 55 55 56 55 55 54 53 51 50 50 49 47
58 58 58 57 55 54 52 53 55 56 55 54 55 56 57 58 58 56 56 56 55 54 53 53 51 51 50
59 60 60 60 60 59 57 55 53 53 55 55 53 53 53 54 55 56 57 56 56 56 56 55 53 52 52
60 61 62 61 62 63 63 61 60 57 53 52 52 52 52 51 50 52 53 53 54 55 56 56 54 54 53
62 62 62 62 62 62 62 61 61 59 58 54 50 48 48 48 47 46 48 51 53 54 55 56 56 56 55
63 64 63 62 61 61 61 60 62 56 54 52 48 46 42 40 41 40 42 44 48 50 53 55 56 55 55
60 59 59 56 56 56 54 54 54 52 50 49 43 44 39 38 35 35 36 37 39 43 46 52 54 54 52
50 49 47 45 44 45 46 48 49 48 46 48 41 41 40 39 37 36 36 37 38 39 39 42 49 51 52
47 43 41 39 37 39 38 40 45 40 38 43 39 40 39 37 36 34 34 34 37 39 42 42 44 45 52
44 40 37 34 33 34 35 38 39 37 35 38 37 39 41 36 33 32 33 32 34 36 40 42 41 43 47
40 37 35 34 32 32 32 34 35 35 33 37 39 39 40 42 35 33 32 32 31 31 32 37 39 38 41
36 34 32 31 31 31 31 32 33 36 36 36 39 37 35 34 32 32 32 29 30 27 27 33 32 34 39
35 34 33 33 34 33 34 33 34 34 31 30 27 26 28 31 34 32 30 23 19 18 21 20 17 30 30
38 38 38 38 37 34 34 31 33 31 22 21 22 27 28 27 29 27 27 27 21 18 13 16 16 18 29
36 36 35 33 31 27 26 27 28 24 19 18 21 22 22 22 24 23 21 20 17 11 8 13 13 22 25
32 31 30 29 27 27 27 27 25 19 20 19 20 18 17 16 20 21 20 14 14 14 11 13 11 16 25
30 29 29 28 28 28 27 24 17 17 17 18 17 19 20 17 17 19 18 15 13 15 15 15 12 14 18

GFSFLT2_700_spd_168.txt.gz
Wind_Speed
56 55 54 52 49 49 50 52 53 54 55 56 57 57 56 55 55 55 55 55 55 56 55 54 53 51 51
57 58 58 58 59 58 56 55 56 56 57 57 57 57 56 54 54 55 56 56 54 54 55 56 56 55 53
61 61 62 61 62 61 61 60 58 56 56 55 55 55 54 55 56 54 53 54 55 55 54 53 54 56 56
60 62 63 63 63 65 65 64 63 60 56 52 52 51 51 51 52 52 53 53 53 54 55 54 53 53 55
62 64 64 64 63 63 64 64 62 59 57 55 51 45 41 43 45 47 49 49 50 51 53 54 53 53 53
63 63 64 61 59 59 58 56 57 52 52 48 46 40 37 34 35 38 41 43 45 46 48 50 50 51 53
58 55 55 52 51 49 47 46 48 44 44 44 39 40 35 33 30 31 33 36 38 39 41 44 45 46 47
48 47 44 42 39 37 40 42 42 40 40 41 34 34 34 31 28 29 30 31 35 39 41 42 45 43 42
42 40 38 36 36 38 38 40 38 33 34 36 33 34 32 28 28 29 30 31 33 34 35 36 38 42 44
40 37 33 31 31 32 34 35 35 34 31 32 34 36 37 34 33 34 34 32 32 33 34 35 37 41 45
40 38 35 32 30 29 30 33 35 36 32 34 37 36 37 40 33 26 25 25 25 28 31 32 35 36 40
44 42 40 37 34 33 33 33 32 34 32 30 33 31 31 30 30 26 26 25 25 23 25 29 33 37 37
41 39 38 38 37 35 32 30 29 26 26 27 25 23 26 30 32 27 22 20 19 20 21 23 23 24 24
38 35 33 32 31 30 29 27 27 25 24 20 18 21 25 27 26 23 20 23 25 23 20 21 19 17 20
35 34 32 30 29 27 27 27 27 25 19 12 16 19 22 22 21 20 21 22 23 21 18 15 12 12 10
31 30 29 28 27 26 25 25 23 18 14 15 16 18 17 14 19 18 17 19 19 16 15 15 13 12 11
29 28 27 26 25 23 20 17 14 13 13 15 17 20 21 19 18 20 21 20 18 14 15 17 16 12 11

GFSFLT2_700_spd_171.txt.gz
Wind_Speed
54 54 55 54 51 51 52 54 55 54 56 57 57 56 57 56 56 55 54 52 52 52 52 53 53 53 54
56 58 59 59 59 60 59 58 59 59 57 57 58 57 57 57 56 55 55 56 55 54 53 52 53 53 53
59 60 63 64 65 64 63 63 63 59 56 54 52 54 55 55 55 55 55 54 55 54 54 53 54 53 51
60 62 62 63 64 65 66 63 62 59 56 53 50 46 45 46 47 48 51 53 53 53 54 54 54 54 53
62 63 62 61 60 60 59 57 53 49 48 45 43 39 35 34 37 40 43 46 48 48 48 50 52 52 53
59 57 53 51 48 48 48 47 49 43 42 37 37 33 30 28 28 31 34 37 40 41 42 43 45 47 49
45 41 41 39 40 42 42 42 41 40 41 39 36 34 31 28 25 24 25 28 32 35 36 37 39 40 42
42 42 41 39 38 39 40 40 37 35 35 37 32 31 29 27 26 25 24 26 29 31 32 34 35 37 40
44 42 40 38 37 38 37 38 35 32 29 31 30 29 30 30 30 29 29 29 30 31 33 34 35 34 35
45 44 42 40 37 37 37 37 36 35 33 34 34 35 35 33 31 22 20 20 22 25 28 29 30 33 35
45 44 41 37 35 32 32 34 34 34 30 30 31 30 32 29 22 21 23 22 21 21 24 27 29 32 32
42 40 38 36 34 32 31 29 28 27 23 23 27 28 26 23 25 23 19 17 17 18 20 22 26 28 31
37 36 35 33 31 29 28 27 27 23 21 23 26 23 22 24 28 24 23 15 16 18 19 20 21 20 22
35 32 32 30 28 27 27 25 24 18 17 19 19 18 20 22 25 22 20 22 20 21 22 18 17 15 18
31 30 29 28 26 25 24 22 20 17 12 10 14 17 18 23 21 21 21 20 20 22 22 17 16 16 17
29 28 27 27 26 23 22 21 17 14 12 13 15 15 15 15 22 21 21 22 20 19 18 16 16 16 16
27 27 26 26 25 23 21 18 15 15 15 17 18 21 21 19 15 20 21 20 18 17 16 16 15 15 14